[[{"header":{"parameterUnit":"m.s-1","parameterCategory":1,"la1":30.2991,"la2":30.254,"lo1":-89.0895,"lo2":-89.0444,"dy":0.0017,"dx":0.0017,"nx":28,"ny":28,"refTime":"2023-10-22T09:00:00:Z","depth":0,"parameterNumber":2,"parameterNumberName":"U-component_of_WINDS"},"data":[0,0,0,0,0,0,0,0,0,0,0,0,0,0,0,0,0,0,0,0,0,0,0,0,0,0,0,0,0,0,0,0,0,0,0,0,0,0,0,0,0,0,0,0,0,0,0,0,0,0,0,0,0,0,0,0,0,0,0.9599,0.96,0,0.9669,0.967,0.9671,0.9688,0.9687,0.9687,0.9686,0.9762,0.9764,0.9767,0,0,0,0,0,0,0,0,0,0,0,0,0,0.9482,0.9484,0.9599,0.96,0.96,0.9669,0.967,0.9671,0.9688,0.9687,0.9686,0.9686,0.9761,0.9764,0.9767,0,0,0,0,0,0,0,0,0,0,0,0,0,0.954,0.9484,0.9599,0.9617,0.9619,0.9669,0.967,0.9671,0.9688,0.9687,0.9686,0.9686,0.976,0.9764,0.9767,0.9805,0,0,0.9778,0.978,0,0,0,0,0,0,0,0,0.9537,0.9545,0.9613,0.9616,0.9618,0.9669,0.9657,0.9716,0.9688,0.9662,0.9686,0.9685,0.9732,0.9738,0.9753,0.9808,0.9811,0.9779,0.9781,0.9783,0.9784,0,0,0,0,0,0,0,0.9533,0.9542,0.9627,0.9614,0.9618,0.9623,0.963,0.9668,0.97,0.9664,0.9665,0.9673,0.9733,0.9749,0.9754,0.9812,0.9779,0.9782,0.9784,0.9786,0.9903,0.9903,0,0,0,0,0,0,0.9525,0.9538,0.9625,0.9629,0.9575,0.9625,0.9634,0.9653,0.97,0.9706,0.9674,0.9674,0.9743,0.975,0.9757,0.9804,0.9783,0.9786,0.9788,0.9902,0.9903,0.9904,0,0,0,0,0,0,0.9523,0.9533,0.9622,0.9584,0.9596,0.9628,0.965,0.9655,0.9671,0.9707,0.9713,0.9684,0.9743,0.9752,0.9792,0.9807,0.9788,0.9791,0.9901,0.9902,0.9903,0.9898,0,0,0,0,0,0,0.9519,0.9532,0.9545,0.9584,0.9598,0.9655,0.9651,0.9657,0.9677,0.9678,0.9718,0.9724,0.9743,0.9787,0.9796,0.9812,0.9794,0.99,0.9901,0.9903,0.9897,0.9899,0.99,0,0,0,0,0,0.9515,0.9542,0.9546,0.9556,0.9615,0.9656,0.9663,0.9683,0.9678,0.9693,0.9716,0.9723,0.9804,0.9791,0.9801,0.9818,0.9899,0.9901,0.9903,0.9896,0.9898,0.99,0,0,0,0,0,0,0.9505,0.9547,0.9552,0.9592,0.962,0.9658,0.9677,0.9685,0.9716,0.9715,0.9739,0.9748,0.9787,0.9807,0.9792,0.9857,0.9851,0.9855,0.9842,0.9845,0.9847,0.9841,0.9797,0,0,0,0,0,0.9507,0.9535,0.9571,0.9603,0.9617,0.9644,0.9663,0.9675,0.9706,0.9718,0.9744,0.9774,0.9806,0.9827,0.9858,0.99,0.9909,0.9917,0.9918,0.992,0.9923,0.9947,0.995,0.991,0.991,0.991,0,0,0.9513,0.9539,0.9556,0.9602,0.9625,0.9654,0.9654,0.9686,0.9708,0.9723,0.9762,0.9783,0.9818,0.9859,0.9878,0.9877,0.9936,0.9922,0.9923,0.9926,0.9949,0.9953,0.9956,0.9912,0.9911,0.9911,0,0,0.9537,0.956,0.9589,0.9612,0.9646,0.9665,0.9672,0.9709,0.9722,0.9762,0.9774,0.9802,0.9856,0.9881,0.99,0.9935,0.9942,0.9944,0.9954,0.9976,0.9979,0.9982,0.9994,0.9998,0.9948,0.9948,0.9948,0,0.954,0.9584,0.9603,0.9634,0.9654,0.9668,0.9698,0.9719,0.9763,0.9777,0.9774,0.9843,0.9868,0.9915,0.9923,0.9938,0.9947,0.994,0.9977,0.998,0.9983,0.9995,1.0,0.9948,0.9948,0.9948,0.9948,0,0.9585,0.9616,0.9635,0.9675,0.9698,0.9728,0.9753,0.9773,0.9784,0.9803,0.9844,0.9874,0.9912,0.9924,0.9935,0.9973,0.997,0.9972,0.9967,0.9987,0.9998,1.0003,0.9947,0.9948,0.9948,0.9948,0,0,0.9605,0.9656,0.9663,0.9681,0.972,0.9745,0.9776,0.9812,0.9829,0.9859,0.9886,0.9932,0.9933,0.9956,0.997,0.999,1.0015,0.9989,0.999,0.9993,1.0058,1.0056,1.0061,1.002,1.0021,1.0022,1.0055,0,0.9635,0.9689,0.9708,0.9754,0.9782,0.9796,0.9823,0.9851,0.9869,0.9897,0.9918,0.995,0.995,0.9964,0.9984,1.0007,1.0028,1.0005,1.0046,1.0048,1.0037,1.0067,1.0065,1.0095,1.006,1.006,1.0061,0,0.9676,0.9705,0.9753,0.9789,0.9801,0.9825,0.986,0.9886,0.9918,0.993,0.9954,0.9967,1.0001,0.9994,1.0042,1.0026,1.0044,1.0058,1.006,1.0064,1.0055,1.0072,1.0105,1.0109,1.0068,1.0068,1.0067,0,0.9686,0.9737,0.9772,0.9788,0.983,0.9847,0.9865,0.9896,0.9917,0.9947,0.9961,0.9995,1.0014,1.0041,1.0063,1.0056,1.0109,1.0104,1.0121,1.012,1.0131,1.013,1.0167,1.0143,1.0143,1.0143,1.0143,0,0.9716,0.9745,0.9777,0.9799,0.9832,0.9854,0.9886,0.9906,0.9933,0.996,0.9974,0.9999,1.0027,1.0056,1.0074,1.011,1.0119,1.013,1.0135,1.0129,1.0127,1.0141,1.0139,1.0144,1.0144,1.0143,1.0143,0,0.9732,0.9755,0.9794,0.9831,0.9841,0.9864,0.9896,0.9918,0.9937,0.997,0.9979,1.001,1.0045,1.0069,1.0114,1.0126,1.0166,1.017,1.0154,1.0157,1.0172,1.017,1.0218,1.0226,1.0197,1.0198,1.0198,0,0.975,0.9773,0.9811,0.9829,0.9848,0.9877,0.9898,0.992,0.9941,0.9979,0.9997,1.0032,1.0062,1.0116,1.0143,1.0178,1.0183,1.0198,1.0188,1.0182,1.0183,1.0181,1.0184,1.0199,1.0199,1.0199,1.0199,0,0.9779,0.9789,0.9818,0.985,0.9874,0.9901,0.9929,0.9943,0.9971,0.9994,1.0028,1.0051,1.0096,1.0132,1.0169,1.0189,1.0199,1.0202,1.0208,1.0202,1.0192,1.0197,1.0158,1.0201,1.0201,1.0201,1.02,1.02,0.9797,0.9817,0.9848,0.9879,0.9902,0.9927,0.9949,0.9971,1.0,1.0038,1.005,1.0086,1.0118,1.0168,1.0189,1.0218,1.0218,1.0226,1.0228,1.023,1.0229,1.0187,1.0225,1.0225,1.0225,1.0225,1.0225,0,0.9827,0.9847,0.9875,0.9912,0.9937,0.9943,0.9974,0.9995,1.0026,1.0054,1.0082,1.0123,1.0157,1.0186,1.0222,1.024,1.0245,1.0248,1.0247,1.0252,1.0228,1.0219,1.0243,1.0243,1.0243,1.0243,1.0243,1.0243,0.9845,0.988,0.9893,0.994,0.996,0.9995,1.0012,1.0035,1.0058,1.0102,1.0129,1.0148,1.0177,1.0215,1.0247,1.0255,1.0267,1.0269,1.0278,1.0255,1.0253,1.0251,1.0243,1.0271,1.0271,1.0299,1.0299,1.0299]},{"header":{"parameterUnit":"m.s-1","parameterCategory":1,"la1":30.2991,"la2":30.254,"lo1":-89.0895,"lo2":-89.0444,"dy":0.0017,"dx":0.0017,"nx":28,"ny":28,"refTime":"2023-10-22T09:00:00:Z","depth":0,"parameterNumber":3,"parameterNumberName":"V-component_of_WINDS"},"data":[0,0,0,0,0,0,0,0,0,0,0,0,0,0,0,0,0,0,0,0,0,0,0,0,0,0,0,0,0,0,0,0,0,0,0,0,0,0,0,0,0,0,0,0,0,0,0,0,0,0,0,0,0,0,0,0,0,0,0.3225,0.3225,0,0.3231,0.3231,0.3231,0.3236,0.3236,0.3236,0.3236,0.324,0.3241,0.3241,0,0,0,0,0,0,0,0,0,0,0,0,0,0.3212,0.3212,0.3224,0.3225,0.3225,0.3231,0.3231,0.3231,0.3236,0.3236,0.3236,0.3236,0.324,0.3241,0.3241,0,0,0,0,0,0,0,0,0,0,0,0,0,0.3218,0.3212,0.3224,0.3228,0.3228,0.3231,0.3231,0.3231,0.3236,0.3236,0.3236,0.3236,0.324,0.3241,0.3241,0.324,0,0,0.3241,0.3241,0,0,0,0,0,0,0,0,0.3217,0.3218,0.3227,0.3227,0.3228,0.3233,0.3228,0.3234,0.3236,0.3233,0.3236,0.3236,0.3238,0.3238,0.3239,0.3241,0.3241,0.3241,0.3241,0.3241,0.3241,0,0,0,0,0,0,0,0.3217,0.3218,0.3227,0.3227,0.3228,0.3227,0.3228,0.323,0.3235,0.3233,0.3233,0.3234,0.3238,0.3239,0.3239,0.3241,0.3241,0.3241,0.3241,0.3241,0.324,0.3239,0,0,0,0,0,0,0.3216,0.3217,0.3227,0.3227,0.3223,0.3228,0.3229,0.3231,0.3235,0.3235,0.3234,0.3234,0.3239,0.3239,0.3239,0.3238,0.3241,0.3241,0.3241,0.324,0.3239,0.3239,0,0,0,0,0,0,0.3216,0.3217,0.3227,0.3222,0.3224,0.3228,0.323,0.3231,0.3232,0.3236,0.3236,0.3235,0.3239,0.3239,0.324,0.3238,0.3241,0.3241,0.324,0.324,0.3239,0.3235,0,0,0,0,0,0,0.3216,0.3217,0.3218,0.3222,0.3224,0.3228,0.323,0.3231,0.3233,0.3233,0.3236,0.3237,0.3239,0.3239,0.324,0.3238,0.3242,0.324,0.324,0.3239,0.3236,0.3235,0.3234,0,0,0,0,0,0.3215,0.3217,0.3218,0.3219,0.3225,0.3228,0.3229,0.3232,0.3233,0.3233,0.3235,0.3237,0.3238,0.3239,0.324,0.3238,0.324,0.324,0.3239,0.3236,0.3235,0.3235,0,0,0,0,0,0,0.3212,0.3217,0.3219,0.3222,0.3225,0.3229,0.3229,0.3231,0.3233,0.3233,0.3236,0.3236,0.3236,0.3237,0.3239,0.3237,0.3239,0.3239,0.3236,0.3236,0.3235,0.3234,0.3242,0,0,0,0,0,0.3212,0.3214,0.3219,0.3221,0.3222,0.3225,0.3227,0.3229,0.3231,0.3232,0.3233,0.3235,0.3235,0.3235,0.3236,0.3236,0.3235,0.3235,0.3234,0.3234,0.3233,0.3231,0.323,0.3238,0.3238,0.3238,0,0,0.3211,0.3214,0.3216,0.322,0.3222,0.3223,0.3226,0.3228,0.3228,0.3232,0.3232,0.3233,0.3234,0.3234,0.3234,0.3235,0.323,0.3233,0.3233,0.3233,0.323,0.3229,0.3229,0.3238,0.3238,0.3238,0,0,0.321,0.3214,0.3215,0.3217,0.322,0.3222,0.3222,0.3225,0.3226,0.3226,0.3228,0.3228,0.323,0.323,0.323,0.3227,0.3228,0.3227,0.3224,0.3221,0.322,0.322,0.3217,0.3216,0.3226,0.3226,0.3226,0,0.3209,0.3212,0.3216,0.3217,0.3217,0.322,0.3221,0.3222,0.3225,0.3224,0.3226,0.3226,0.3227,0.3226,0.3225,0.3225,0.3224,0.3226,0.322,0.322,0.3219,0.3216,0.3216,0.3226,0.3226,0.3226,0.3226,0,0.3209,0.3211,0.3211,0.3214,0.3215,0.3216,0.3218,0.3218,0.3219,0.322,0.3219,0.322,0.3221,0.322,0.3222,0.3218,0.3218,0.322,0.3222,0.3218,0.3215,0.3215,0.3226,0.3226,0.3226,0.3226,0,0,0.3208,0.3211,0.3211,0.3211,0.3214,0.3214,0.3214,0.3214,0.3214,0.3215,0.3213,0.3213,0.3214,0.3214,0.3215,0.3213,0.3208,0.3215,0.3215,0.3212,0.3202,0.32,0.3199,0.3209,0.3209,0.3209,0.3201,0,0.3207,0.3208,0.321,0.3209,0.3209,0.3211,0.321,0.3211,0.3211,0.321,0.321,0.321,0.3212,0.3211,0.3209,0.3209,0.3206,0.321,0.3206,0.3206,0.3205,0.3198,0.3196,0.319,0.32,0.32,0.32,0,0.3206,0.3207,0.3206,0.3206,0.3207,0.3206,0.3205,0.3205,0.3205,0.3205,0.3204,0.3205,0.3203,0.3205,0.3201,0.3203,0.3201,0.3201,0.32,0.32,0.3202,0.3196,0.3188,0.3186,0.3199,0.3199,0.3199,0,0.3204,0.3204,0.3204,0.3204,0.3205,0.3204,0.3204,0.3203,0.3203,0.3201,0.32,0.3199,0.3198,0.3196,0.3195,0.3197,0.319,0.3193,0.3189,0.3189,0.3187,0.3187,0.3178,0.3188,0.3188,0.3188,0.3188,0,0.3202,0.3201,0.3202,0.3202,0.32,0.3201,0.3199,0.3199,0.3198,0.3196,0.3197,0.3195,0.3195,0.3193,0.3192,0.3187,0.3187,0.3186,0.3186,0.3186,0.3186,0.3184,0.3184,0.3187,0.3187,0.3187,0.3187,0,0.3199,0.32,0.3199,0.3199,0.3199,0.3197,0.3197,0.3195,0.3195,0.3192,0.3192,0.3191,0.3188,0.3187,0.3183,0.3183,0.3177,0.3177,0.3177,0.3177,0.3172,0.3172,0.3161,0.3159,0.3171,0.3171,0.3171,0,0.3198,0.3197,0.3197,0.3195,0.3195,0.3194,0.3193,0.3193,0.3192,0.319,0.3188,0.3185,0.3182,0.3176,0.3174,0.3171,0.3171,0.3167,0.317,0.3169,0.3169,0.3169,0.3168,0.3166,0.3166,0.3166,0.3166,0,0.3195,0.3194,0.3193,0.3192,0.319,0.3189,0.3188,0.3186,0.3186,0.3184,0.3181,0.3179,0.3174,0.317,0.3166,0.3164,0.3164,0.3165,0.3163,0.3163,0.3162,0.3161,0.3174,0.3165,0.3165,0.3165,0.3165,0.3165,0.3192,0.319,0.3189,0.3187,0.3186,0.3184,0.3182,0.3181,0.3178,0.3175,0.3175,0.317,0.3167,0.3162,0.316,0.3155,0.3156,0.3155,0.3154,0.3153,0.3152,0.3163,0.3154,0.3154,0.3155,0.3155,0.3155,0,0.3187,0.3186,0.3184,0.3182,0.318,0.318,0.3178,0.3176,0.3172,0.317,0.3167,0.3161,0.3157,0.3154,0.3149,0.3146,0.3145,0.3144,0.3144,0.3143,0.3152,0.3153,0.3145,0.3145,0.3145,0.3145,0.3145,0.3145,0.3185,0.3182,0.3181,0.3177,0.3175,0.3171,0.317,0.3167,0.3165,0.3159,0.3155,0.3154,0.315,0.3144,0.314,0.3139,0.3136,0.3135,0.3134,0.3142,0.3143,0.3144,0.3145,0.3134,0.3134,0.3125,0.3125,0.3125]}]]